GW1230 Weather Reports


time (UTC)temp
C
wind
direction
speed
KPH
gust
KPH
rain 1hr
cm
rain 24hr
cm
rain mn
cm
humidity
%
barometer
mb
20260505140502 12 175 11.3 12.9 0.00 0.00 0.00 87 1014.9
20260505124915 12 191 8.0 11.3 0.00 0.00 0.00 88 1014.2
20260505124412 12 196 4.8 4.8 0.00 0.00 0.00 89 1014.2
20260505123908 12 212 12.9 14.5 0.00 0.00 0.00 89 1014.2
20260505123405 12 154 11.3 14.5 0.00 0.00 0.00 89 1014.1
20260505122900 12 194 9.7 11.3 0.00 0.00 0.00 89 1013.9
20260505122358 12 162 14.5 16.1 0.00 0.00 0.00 89 1014.0
20260505121855 12 190 12.9 14.5 0.00 0.00 0.00 89 1014.0
20260505121352 12 177 20.9 27.4 0.00 0.00 0.00 89 1014.1
20260505120847 12 167 8.0 11.3 0.00 0.00 0.00 89 1014.0
20260505120344 12 203 17.7 22.5 0.00 0.00 0.00 89 1014.0
20260505115843 12 172 11.3 16.1 0.00 0.00 0.00 89 1014.1
20260505115340 12 175 6.4 8.0 0.00 0.00 0.00 90 1013.9
20260505114838 12 198 14.5 17.7 0.00 0.00 0.00 90 1013.9
20260505114334 12 181 11.3 12.9 0.00 0.00 0.00 89 1013.9
20260505113830 12 189 11.3 14.5 0.00 0.00 0.00 89 1013.7
20260505113327 12 212 6.4 14.5 0.00 0.00 0.00 90 1013.7
20260505112823 12 175 8.0 11.3 0.00 0.00 0.00 90 1014.0
20260505112321 12 177 16.1 20.9 0.00 0.00 0.00 90 1013.5
20260505111816 12 162 8.0 9.7 0.00 0.00 0.00 90 1013.7
20260505111311 12 212 8.0 9.7 0.00 0.00 0.00 90 1013.7
20260505110808 12 238 3.2 3.2 0.00 0.00 0.00 91 1013.7
20260505110305 12 205 11.3 12.9 0.00 0.00 0.00 90 1013.6
20260505101740 12 202 12.9 14.5 0.00 0.00 0.00 91 1013.2
20260505101235 12 248 3.2 8.0 0.00 0.00 0.00 91 1013.2
20260505100732 12 219 4.8 4.8 0.00 0.00 0.00 91 1013.0
20260505100229 12 190 14.5 16.1 0.00 0.00 0.00 91 1013.1
20260505095724 12 189 6.4 8.0 0.00 0.00 0.00 91 1013.1
20260505095222 12 188 11.3 12.9 0.00 0.00 0.00 91 1013.2
20260505094717 12 181 9.7 11.3 0.00 0.00 0.00 91 1013.2
20260505094214 12 247 4.8 8.0 0.00 0.00 0.00 91 1013.0
20260505093710 12 208 14.5 16.1 0.00 0.00 0.00 91 1012.9
20260505093208 12 200 6.4 9.7 0.00 0.00 0.00 91 1012.9
20260505092704 12 231 1.6 4.8 0.00 0.00 0.00 91 1012.7
20260505092204 12 243 9.7 12.9 0.00 0.00 0.00 90 1012.6
20260505091700 12 180 1.6 3.2 0.00 0.00 0.00 90 1012.8
20260505091158 12 202 6.4 11.3 0.00 0.00 0.00 90 1012.7
20260505090655 12 191 14.5 14.5 0.00 0.00 0.00 90 1012.6
20260505090154 12 186 4.8 4.8 0.00 0.00 0.00 90 1012.8
20260505085650 12 206 8.0 9.7 0.00 0.00 0.00 90 1012.7
20260505085149 12 194 6.4 8.0 0.00 0.00 0.00 90 1012.6
20260505084646 12 197 11.3 11.3 0.00 0.00 0.00 90 1012.8
20260505084144 12 207 12.9 14.5 0.00 0.00 0.00 90 1012.7
20260505083642 12 203 8.0 9.7 0.00 0.00 0.00 90 1012.4
20260505083138 12 219 1.6 3.2 0.00 0.00 0.00 90 1012.6
20260505082634 12 255 4.8 9.7 0.00 0.00 0.00 89 1012.4
20260505082131 12 202 9.7 11.3 0.00 0.00 0.00 89 1012.4
20260505081627 12 173 8.0 9.7 0.00 0.00 0.00 89 1012.5
20260505081125 12 199 6.4 8.0 0.00 0.00 0.00 89 1012.5
20260505080621 12 203 11.3 16.1 0.00 0.00 0.00 89 1012.4
20260505080117 12 201 8.0 9.7 0.00 0.00 0.00 89 1012.5
20260505075614 12 167 12.9 16.1 0.00 0.00 0.00 88 1012.4
20260505075110 12 208 3.2 4.8 0.00 0.00 0.00 88 1012.3
20260505074607 12 212 6.4 8.0 0.00 0.00 0.00 88 1012.5
20260505074104 13 171 11.3 16.1 0.00 0.00 0.00 88 1012.2
20260505073602 13 208 6.4 11.3 0.00 0.00 0.00 88 1012.1
20260505073100 13 199 4.8 4.8 0.00 0.00 0.00 88 1012.1
20260505072555 13 179 6.4 8.0 0.00 0.00 0.00 87 1012.1
20260505072052 13 244 3.2 4.8 0.00 0.00 0.00 87 1012.2
20260505071548 13 207 11.3 16.1 0.00 0.00 0.00 87 1012.1
20260505071046 13 199 9.7 11.3 0.00 0.00 0.00 87 1011.8
20260505070543 13 245 8.0 11.3 0.00 0.00 0.00 87 1011.7
20260505070039 13 239 3.2 3.2 0.00 0.00 0.00 86 1011.7
20260505065535 13 180 11.3 14.5 0.00 0.00 0.00 86 1011.5
20260505065032 13 203 12.9 14.5 0.00 0.00 0.00 86 1011.7
20260505064528 13 200 9.7 11.3 0.00 0.00 0.00 85 1011.8
20260505064027 13 197 12.9 16.1 0.00 0.00 0.00 85 1011.8
20260505063524 13 177 4.8 4.8 0.00 0.00 0.00 85 1011.5
20260505063020 13 203 4.8 8.0 0.00 0.00 0.00 85 1011.7
20260505062517 13 179 8.0 9.7 0.00 0.00 0.00 84 1011.7
20260505062014 14 173 8.0 9.7 0.00 0.00 0.00 84 1011.5
20260505061511 14 200 8.0 9.7 0.00 0.00 0.00 84 1011.4
20260505061009 14 211 0.0 0.0 0.00 0.00 0.00 83 1011.1
20260505060506 14 226 8.0 11.3 0.00 0.00 0.00 82 1011.3
20260505060002 15 194 14.5 14.5 0.00 0.00 0.00 82 1010.9
20260505055458 15 201 12.9 14.5 0.00 0.00 0.00 82 1011.3
20260505054955 15 173 11.3 14.5 0.00 0.00 0.00 81 1011.2
20260505054453 15 193 6.4 9.7 0.00 0.00 0.00 81 1011.4
20260505053950 15 189 11.3 12.9 0.00 0.00 0.00 80 1011.0
20260505053447 15 205 6.4 9.7 0.00 0.00 0.00 80 1011.1
20260505052944 15 194 14.5 16.1 0.00 0.00 0.00 80 1010.8
20260505052441 15 172 9.7 11.3 0.00 0.00 0.00 79 1011.1
20260505051938 15 251 6.4 11.3 0.00 0.00 0.00 79 1010.8
20260505051435 16 206 8.0 9.7 0.00 0.00 0.00 78 1010.8
20260505050933 16 273 4.8 4.8 0.00 0.00 0.00 77 1010.6
20260505050431 16 207 4.8 8.0 0.00 0.00 0.00 76 1010.8
20260505041359 17 274 1.6 3.2 0.00 0.00 0.00 73 1010.2
20260505040856 17 234 4.8 4.8 0.00 0.00 0.00 73 1010.0
20260505040353 17 221 3.2 4.8 0.00 0.00 0.00 72 1010.0
20260505035850 18 248 1.6 4.8 0.00 0.00 0.00 71 1009.9
20260505035345 18 200 1.6 3.2 0.00 0.00 0.00 71 1009.9
20260505034843 18 264 1.6 3.2 0.00 0.00 0.00 70 1009.8
20260505034340 18 228 4.8 4.8 0.00 0.00 0.00 69 1009.5
20260505033837 18 232 8.0 9.7 0.00 0.00 0.00 69 1009.6
20260505033334 19 274 8.0 11.3 0.00 0.00 0.00 68 1009.3
20260505032832 19 301 0.0 0.0 0.00 0.00 0.00 67 1009.4
20260505032328 20 317 1.6 1.6 0.00 0.00 0.00 66 1009.5
20260505031825 20 236 4.8 8.0 0.00 0.00 0.00 66 1009.5
20260505031321 20 254 3.2 3.2 0.00 0.00 0.00 64 1009.3
20260505030819 20 260 8.0 9.7 0.00 0.00 0.00 63 1009.2
20260505030315 21 269 4.8 4.8 0.00 0.00 0.00 61 1009.2
20260505025810 21 252 8.0 9.7 0.00 0.00 0.00 59 1009.2
20260505025308 21 266 0.0 1.6 0.00 0.00 0.00 58 1009.0
20260505024807 22 299 3.2 4.8 0.00 0.00 0.00 58 1009.2
20260505024304 22 294 4.8 4.8 0.00 0.00 0.00 57 1009.0
20260505023801 22 292 4.8 8.0 0.00 0.00 0.00 56 1009.0
20260505023258 22 280 3.2 4.8 0.00 0.00 0.00 55 1008.9
20260505022755 23 287 8.0 11.3 0.00 0.00 0.00 55 1009.0
20260505022252 23 291 11.3 14.5 0.00 0.00 0.00 55 1008.9
20260505021749 23 306 3.2 3.2 0.00 0.00 0.00 54 1009.0
20260505021246 24 295 3.2 4.8 0.00 0.00 0.00 53 1009.0
20260505020741 25 279 6.4 11.3 0.00 0.00 0.00 52 1008.9
20260505020237 25 255 3.2 4.8 0.00 0.00 0.00 51 1008.8
20260505015734 25 254 1.6 3.2 0.00 0.00 0.00 50 1008.7
20260505015231 25 256 3.2 4.8 0.00 0.00 0.00 51 1008.8
20260505014728 25 173 4.8 4.8 0.00 0.00 0.00 51 1008.8
20260505014226 25 255 3.2 4.8 0.00 0.00 0.00 50 1009.0
20260505013722 25 273 3.2 3.2 0.00 0.00 0.00 49 1009.0
20260505013219 26 267 0.0 1.6 0.00 0.00 0.00 48 1008.9
20260505012718 25 290 3.2 3.2 0.00 0.00 0.00 49 1009.1
20260505012215 25 278 0.0 1.6 0.00 0.00 0.00 49 1009.1
20260505011710 25 286 3.2 3.2 0.00 0.00 0.00 49 1008.9
20260505011208 25 276 0.0 1.6 0.00 0.00 0.00 48 1009.0
20260505010703 26 293 0.0 1.6 0.00 0.00 0.00 48 1009.0
20260505010200 26 217 6.4 8.0 0.00 0.00 0.00 47 1009.0
20260505005656 26 195 4.8 8.0 0.00 0.00 0.00 44 1008.9
20260505005153 26 269 1.6 1.6 0.00 0.00 0.00 45 1008.8
20260505004650 26 165 4.8 8.0 0.00 0.00 0.00 44 1009.1
20260505004146 26 193 6.4 8.0 0.00 0.00 0.00 44 1009.1
20260505003644 26 281 4.8 4.8 0.00 0.00 0.00 43 1009.0
20260505003142 26 252 9.7 11.3 0.00 0.00 0.00 42 1008.9
20260505002638 26 243 4.8 4.8 0.00 0.00 0.00 44 1009.1
20260505002136 26 251 6.4 9.7 0.00 0.00 0.00 43 1009.2
20260505001632 26 293 1.6 1.6 0.00 0.00 0.00 43 1009.0
20260505001130 26 306 3.2 3.2 0.00 0.00 0.00 43 1009.2
20260505000627 26 249 9.7 12.9 0.00 0.00 0.00 43 1009.3
20260505000125 26 225 6.4 8.0 0.00 0.00 0.00 42 1009.0
20260504235621 26 258 6.4 9.7 0.00 0.00 0.00 43 1009.2
20260504235117 27 237 8.0 9.7 0.00 0.00 0.00 40 1009.1
20260504234614 26 275 8.0 9.7 0.00 0.00 0.00 42 1009.1
20260504234112 26 301 3.2 4.8 0.00 0.00 0.00 40 1009.3
20260504233607 26 186 8.0 11.3 0.00 0.00 0.00 40 1009.3
20260504233104 26 208 8.0 11.3 0.00 0.00 0.00 40 1009.3
20260504232601 26 278 1.6 1.6 0.00 0.00 0.00 39 1009.4
20260504232059 26 204 8.0 11.3 0.00 0.00 0.00 39 1009.2
20260504231555 26 205 6.4 9.7 0.00 0.00 0.00 40 1009.3
20260504231051 26 289 8.0 11.3 0.00 0.00 0.00 38 1009.3
20260504230547 26 244 4.8 8.0 0.00 0.00 0.00 40 1009.2
20260504230047 26 208 4.8 4.8 0.00 0.00 0.00 39 1009.3
20260504225543 26 212 4.8 4.8 0.00 0.00 0.00 38 1009.6
20260504225040 26 182 9.7 11.3 0.00 0.00 0.00 39 1009.4
20260504224537 26 205 9.7 12.9 0.00 0.00 0.00 40 1009.6
20260504224034 26 207 6.4 8.0 0.00 0.00 0.00 40 1009.5
20260504223531 26 246 4.8 4.8 0.00 0.00 0.00 40 1009.7
20260504223027 27 251 3.2 4.8 0.00 0.00 0.00 38 1009.8
20260504222523 26 236 8.0 11.3 0.00 0.00 0.00 37 1009.9
20260504222021 26 254 4.8 8.0 0.00 0.00 0.00 41 1009.9
20260504221518 26 296 8.0 11.3 0.00 0.00 0.00 37 1009.9
20260504221015 25 256 3.2 4.8 0.00 0.00 0.00 38 1010.0
20260504220512 25 258 8.0 11.3 0.00 0.00 0.00 39 1010.0
20260504220009 25 282 4.8 4.8 0.00 0.00 0.00 36 1010.0
20260504215505 25 254 6.4 9.7 0.00 0.00 0.00 35 1010.2
20260504215003 25 235 9.7 12.9 0.00 0.00 0.00 40 1010.1
20260504214458 25 181 4.8 4.8 0.00 0.00 0.00 43 1010.2
20260504213955 25 229 8.0 11.3 0.00 0.00 0.00 44 1010.1
20260504213451 25 236 11.3 16.1 0.00 0.00 0.00 47 1010.2
20260504212949 25 251 9.7 11.3 0.00 0.00 0.00 47 1010.2
20260504212444 25 275 4.8 8.0 0.00 0.00 0.00 49 1010.2
20260504211942 25 227 3.2 4.8 0.00 0.00 0.00 47 1010.3
20260504211438 25 206 8.0 11.3 0.00 0.00 0.00 48 1010.4
20260504210936 25 269 0.0 0.0 0.00 0.00 0.00 49 1010.4
20260504210432 24 251 4.8 4.8 0.00 0.00 0.00 50 1010.4
20260504205929 25 241 8.0 9.7 0.00 0.00 0.00 50 1010.7
20260504205427 25 249 9.7 11.3 0.00 0.00 0.00 49 1010.5
20260504204925 24 190 4.8 8.0 0.00 0.00 0.00 49 1010.6
20260504204423 24 246 6.4 9.7 0.00 0.00 0.00 48 1010.5
20260504203922 25 250 6.4 9.7 0.00 0.00 0.00 49 1010.4
20260504203419 24 253 8.0 9.7 0.00 0.00 0.00 49 1010.3
20260504202915 24 233 8.0 11.3 0.00 0.00 0.00 48 1010.4
20260504202412 24 199 6.4 8.0 0.00 0.00 0.00 47 1010.5
20260504201909 23 207 4.8 8.0 0.00 0.00 0.00 49 1010.6
20260504201406 25 243 4.8 9.7 0.00 0.00 0.00 48 1010.6
20260504200903 23 279 11.3 12.9 0.00 0.00 0.00 49 1010.4
20260504200400 23 244 8.0 12.9 0.00 0.00 0.00 50 1010.6
20260504195856 23 224 4.8 8.0 0.00 0.00 0.00 48 1010.7
20260504195352 22 208 8.0 11.3 0.00 0.00 0.00 53 1010.6
20260504194849 22 249 12.9 14.5 0.00 0.00 0.00 53 1010.5
20260504194345 22 254 11.3 12.9 0.00 0.00 0.00 53 1010.7
20260504193841 22 264 4.8 8.0 0.00 0.00 0.00 54 1010.3
20260504193338 23 209 6.4 11.3 0.00 0.00 0.00 51 1010.5
20260504192837 22 246 6.4 9.7 0.00 0.00 0.00 53 1010.7
20260504192335 22 249 4.8 8.0 0.00 0.00 0.00 50 1010.6
20260504191833 22 260 9.7 14.5 0.00 0.00 0.00 49 1010.5
20260504191330 22 238 11.3 12.9 0.00 0.00 0.00 50 1010.6
20260504190825 22 255 6.4 11.3 0.00 0.00 0.00 49 1010.9
20260504190322 23 246 6.4 8.0 0.00 0.00 0.00 47 1010.7
20260504185819 25 256 8.0 9.7 0.00 0.00 0.00 42 1010.6
20260504185316 23 326 3.2 4.8 0.00 0.00 0.00 41 1010.6
20260504184812 23 208 6.4 8.0 0.00 0.00 0.00 42 1010.8
20260504184308 23 245 3.2 4.8 0.00 0.00 0.00 41 1010.6
20260504183803 22 273 6.4 8.0 0.00 0.00 0.00 44 1010.7
20260504183301 23 193 4.8 8.0 0.00 0.00 0.00 42 1010.8
20260504182759 22 169 4.8 8.0 0.00 0.00 0.00 44 1010.9
20260504182255 21 281 1.6 3.2 0.00 0.00 0.00 47 1010.9
20260504181753 22 295 8.0 9.7 0.00 0.00 0.00 48 1010.9
20260504181250 21 257 4.8 4.8 0.00 0.00 0.00 50 1010.7
20260504180749 21 241 4.8 8.0 0.00 0.00 0.00 50 1011.0
20260504180247 22 280 9.7 11.3 0.00 0.00 0.00 49 1010.7
20260504175745 22 217 3.2 3.2 0.00 0.00 0.00 45 1010.8
20260504175241 22 197 6.4 8.0 0.00 0.00 0.00 46 1010.7
20260504174739 22 194 6.4 8.0 0.00 0.00 0.00 47 1010.7
20260504174237 22 279 3.2 4.8 0.00 0.00 0.00 47 1010.7
20260504173733 22 285 3.2 4.8 0.00 0.00 0.00 47 1010.8
20260504173230 21 253 4.8 4.8 0.00 0.00 0.00 51 1010.7
20260504172727 21 253 6.4 8.0 0.00 0.00 0.00 52 1010.8
20260504172223 21 244 8.0 9.7 0.00 0.00 0.00 50 1011.0
20260504171720 22 240 8.0 8.0 0.00 0.00 0.00 50 1010.8
20260504171217 21 293 0.0 0.0 0.00 0.00 0.00 50 1010.6
20260504170714 21 256 4.8 8.0 0.00 0.00 0.00 49 1010.8
20260504170211 21 227 1.6 3.2 0.00 0.00 0.00 50 1010.8
20260504160129 19 39 1.6 3.2 0.00 0.00 0.00 64 1010.7
20260504151057 16 267 0.0 0.0 0.00 0.00 0.00 73 1010.2
20260504150554 16 257 1.6 1.6 0.00 0.00 0.00 74 1010.1